[[{"header":{"parameterUnit":"m.s-1","parameterCategory":1,"la1":30.2991,"la2":30.254,"lo1":-89.0895,"lo2":-89.0444,"dy":0.0017,"dx":0.0017,"nx":28,"ny":28,"refTime":"2025-04-19T09:00:00:Z","depth":0,"parameterNumber":2,"parameterNumberName":"U-component_of_WINDS"},"data":[0,0,0,0,0,0,0,0,0,0,0,0,0,0,0,0,0,0,0,0,0,0,0,0,0,0,0,0,0,0,0,0,0,0,0,0,0,0,0,0,0,0,0,0,0,0,0,0,0,0,0,0,0,0,0,0,0,0,-5.4542,-5.4543,0,-5.462,-5.4621,-5.4622,-5.4563,-5.4561,-5.4558,-5.4556,-5.4634,-5.4639,-5.4643,0,0,0,0,0,0,0,0,0,0,0,0,0,-5.4343,-5.4347,-5.4542,-5.4543,-5.4544,-5.462,-5.4621,-5.4622,-5.4564,-5.4561,-5.4557,-5.4555,-5.4633,-5.4638,-5.4643,0,0,0,0,0,0,0,0,0,0,0,0,0,-5.4426,-5.4348,-5.4542,-5.4524,-5.4523,-5.462,-5.4621,-5.4622,-5.4564,-5.456,-5.4557,-5.4553,-5.4631,-5.4638,-5.4644,-5.4762,0,0,-5.4665,-5.4668,0,0,0,0,0,0,0,0,-5.4421,-5.4433,-5.4526,-5.4526,-5.4525,-5.4578,-5.458,-5.4669,-5.4565,-5.4549,-5.4556,-5.4551,-5.4619,-5.4626,-5.4649,-5.4766,-5.4769,-5.4665,-5.4669,-5.4672,-5.4674,0,0,0,0,0,0,0,-5.4416,-5.443,-5.4573,-5.4527,-5.4527,-5.4512,-5.452,-5.4596,-5.4604,-5.455,-5.4546,-5.4556,-5.4618,-5.4643,-5.465,-5.477,-5.4665,-5.4671,-5.4675,-5.4678,-5.4988,-5.4992,0,0,0,0,0,0,-5.4412,-5.4425,-5.4571,-5.4575,-5.4463,-5.4519,-5.4527,-5.4565,-5.4603,-5.4605,-5.4559,-5.4553,-5.4633,-5.4643,-5.4653,-5.4792,-5.4672,-5.4678,-5.4682,-5.4983,-5.4988,-5.4993,0,0,0,0,0,0,-5.4408,-5.4425,-5.4567,-5.4499,-5.4516,-5.4527,-5.4569,-5.4568,-5.4593,-5.461,-5.4611,-5.4583,-5.4631,-5.4644,-5.4735,-5.4794,-5.4681,-5.4688,-5.4978,-5.4985,-5.4991,-5.5073,0,0,0,0,0,0,-5.4402,-5.4424,-5.4469,-5.4501,-5.452,-5.4649,-5.4573,-5.4573,-5.4605,-5.4598,-5.4633,-5.4635,-5.4629,-5.4726,-5.4742,-5.4801,-5.4693,-5.4973,-5.4981,-5.4989,-5.5065,-5.5081,-5.5095,0,0,0,0,0,-5.4395,-5.4489,-5.4472,-5.4489,-5.4576,-5.4652,-5.4663,-5.4654,-5.461,-5.4655,-5.4666,-5.4634,-5.4786,-5.4736,-5.4754,-5.4816,-5.4969,-5.4979,-5.4988,-5.5058,-5.5078,-5.5095,0,0,0,0,0,0,-5.4463,-5.4493,-5.4474,-5.458,-5.4614,-5.4642,-5.4698,-5.4675,-5.4722,-5.4713,-5.47,-5.4708,-5.4804,-5.482,-5.4763,-5.4932,-5.4871,-5.4884,-5.4918,-5.4937,-5.4952,-5.4944,-5.4698,0,0,0,0,0,-5.4491,-5.455,-5.4573,-5.4664,-5.4683,-5.4688,-5.4721,-5.4711,-5.4745,-5.4759,-5.4777,-5.4811,-5.4866,-5.4903,-5.4955,-5.5068,-5.5074,-5.512,-5.5135,-5.5148,-5.5158,-5.5218,-5.5238,-5.5024,-5.5024,-5.5024,0,0,-5.4547,-5.4571,-5.4609,-5.4679,-5.4704,-5.4765,-5.47,-5.4768,-5.4813,-5.4769,-5.4856,-5.4871,-5.4909,-5.5011,-5.5058,-5.5027,-5.5219,-5.516,-5.5169,-5.5173,-5.523,-5.525,-5.5268,-5.503,-5.5029,-5.5028,0,0,-5.4681,-5.4706,-5.4785,-5.4812,-5.4851,-5.4854,-5.4874,-5.4906,-5.4913,-5.5001,-5.497,-5.5024,-5.512,-5.5147,-5.5174,-5.5322,-5.5293,-5.5339,-5.5417,-5.5476,-5.5492,-5.5507,-5.5558,-5.5576,-5.5351,-5.5351,-5.5351,0,-5.4747,-5.4838,-5.4828,-5.4898,-5.4929,-5.4894,-5.4973,-5.5,-5.5054,-5.5077,-5.5043,-5.5162,-5.5185,-5.5294,-5.533,-5.5354,-5.5374,-5.5333,-5.5491,-5.5506,-5.5519,-5.5567,-5.5587,-5.5356,-5.5355,-5.5355,-5.5354,0,-5.4915,-5.4979,-5.5038,-5.5091,-5.513,-5.5204,-5.5206,-5.5246,-5.5234,-5.5241,-5.5331,-5.5358,-5.5414,-5.544,-5.5429,-5.5547,-5.5527,-5.5493,-5.543,-5.5545,-5.559,-5.5608,-5.5363,-5.5362,-5.536,-5.5359,0,0,-5.5091,-5.514,-5.5161,-5.5185,-5.5226,-5.5275,-5.5349,-5.5405,-5.5438,-5.5478,-5.5538,-5.5622,-5.559,-5.5621,-5.5613,-5.5665,-5.5778,-5.5624,-5.5624,-5.5649,-5.5908,-5.5931,-5.5953,-5.5761,-5.5764,-5.5767,-5.5904,0,-5.5225,-5.5352,-5.5347,-5.5465,-5.5523,-5.5492,-5.5556,-5.5589,-5.5598,-5.5649,-5.5659,-5.5717,-5.5673,-5.5691,-5.5741,-5.5753,-5.5829,-5.5744,-5.5815,-5.5818,-5.5803,-5.5976,-5.6001,-5.6129,-5.5922,-5.5925,-5.5927,0,-5.5398,-5.5443,-5.5568,-5.5601,-5.5625,-5.5683,-5.5733,-5.5783,-5.5819,-5.5823,-5.5858,-5.5842,-5.5916,-5.5855,-5.5956,-5.5898,-5.5928,-5.5938,-5.5943,-5.5946,-5.5877,-5.5982,-5.6169,-5.6187,-5.5955,-5.5952,-5.595,0,-5.5511,-5.5603,-5.5689,-5.5711,-5.5753,-5.5793,-5.5813,-5.5846,-5.588,-5.5925,-5.5946,-5.6,-5.6028,-5.607,-5.6068,-5.6024,-5.6171,-5.6109,-5.6174,-5.6174,-5.6203,-5.6201,-5.6395,-5.6228,-5.6228,-5.6227,-5.6227,0,-5.5659,-5.5736,-5.574,-5.5793,-5.5878,-5.5872,-5.5957,-5.5972,-5.6002,-5.6057,-5.6034,-5.6086,-5.6083,-5.6136,-5.6136,-5.6219,-5.6233,-5.6236,-5.6235,-5.6236,-5.6236,-5.6253,-5.6243,-5.6232,-5.6231,-5.623,-5.6229,0,-5.5798,-5.5804,-5.5895,-5.5928,-5.5938,-5.5999,-5.6026,-5.6077,-5.6085,-5.6155,-5.6171,-5.6184,-5.6245,-5.6249,-5.632,-5.632,-5.642,-5.641,-5.6407,-5.6404,-5.6467,-5.646,-5.6677,-5.6704,-5.6522,-5.6524,-5.6526,0,-5.589,-5.5949,-5.5988,-5.6023,-5.6044,-5.6102,-5.6136,-5.6134,-5.6171,-5.6218,-5.6262,-5.6321,-5.6368,-5.6467,-5.6482,-5.6537,-5.6526,-5.6599,-5.6534,-5.6534,-5.6524,-5.6519,-5.6524,-5.661,-5.6612,-5.6613,-5.6615,0,-5.6054,-5.6054,-5.6105,-5.6158,-5.62,-5.6241,-5.6279,-5.631,-5.6311,-5.6355,-5.6417,-5.6453,-5.6526,-5.6584,-5.6638,-5.6657,-5.6636,-5.6636,-5.6653,-5.6653,-5.6648,-5.6649,-5.6438,-5.663,-5.6628,-5.6627,-5.6626,-5.6626,-5.617,-5.622,-5.6255,-5.6313,-5.6342,-5.6378,-5.6427,-5.6442,-5.6494,-5.6552,-5.6548,-5.6617,-5.6653,-5.6722,-5.6746,-5.68,-5.6775,-5.6801,-5.6806,-5.6812,-5.6817,-5.6643,-5.681,-5.6809,-5.6809,-5.6809,-5.6808,0,-5.633,-5.6351,-5.6405,-5.6459,-5.6504,-5.6483,-5.6524,-5.6563,-5.6624,-5.666,-5.6707,-5.6778,-5.6835,-5.6857,-5.6912,-5.6951,-5.6943,-5.6966,-5.6961,-5.6965,-5.6838,-5.6816,-5.6971,-5.6971,-5.6971,-5.6971,-5.6971,-5.6971,-5.6418,-5.6501,-5.6506,-5.6603,-5.6624,-5.6691,-5.6717,-5.6751,-5.6779,-5.686,-5.6907,-5.6921,-5.6951,-5.7009,-5.706,-5.7065,-5.7085,-5.7111,-5.7112,-5.6991,-5.6975,-5.6959,-5.6938,-5.7117,-5.7117,-5.7235,-5.7236,-5.7237]},{"header":{"parameterUnit":"m.s-1","parameterCategory":1,"la1":30.2991,"la2":30.254,"lo1":-89.0895,"lo2":-89.0444,"dy":0.0017,"dx":0.0017,"nx":28,"ny":28,"refTime":"2025-04-19T09:00:00:Z","depth":0,"parameterNumber":3,"parameterNumberName":"V-component_of_WINDS"},"data":[0,0,0,0,0,0,0,0,0,0,0,0,0,0,0,0,0,0,0,0,0,0,0,0,0,0,0,0,0,0,0,0,0,0,0,0,0,0,0,0,0,0,0,0,0,0,0,0,0,0,0,0,0,0,0,0,0,0,3.0373,3.0374,0,3.046,3.0461,3.0462,3.0494,3.0493,3.0493,3.0493,3.0577,3.058,3.0582,0,0,0,0,0,0,0,0,0,0,0,0,0,3.0231,3.0233,3.0373,3.0374,3.0375,3.046,3.0461,3.0462,3.0494,3.0493,3.0493,3.0493,3.0577,3.058,3.0583,0,0,0,0,0,0,0,0,0,0,0,0,0,3.0302,3.0234,3.0373,3.0401,3.0405,3.046,3.0461,3.0463,3.0494,3.0493,3.0493,3.0492,3.0576,3.0579,3.0583,3.0615,0,0,3.0595,3.0596,0,0,0,0,0,0,0,0,3.0298,3.0308,3.0396,3.0399,3.0403,3.0466,3.0442,3.0514,3.0494,3.046,3.0493,3.0492,3.054,3.0547,3.0564,3.0619,3.0623,3.0595,3.0597,3.0599,3.06,0,0,0,0,0,0,0,3.0293,3.0304,3.0407,3.0397,3.0402,3.0408,3.0418,3.0456,3.0501,3.0463,3.0465,3.0475,3.0542,3.056,3.0566,3.0624,3.0595,3.0598,3.0601,3.0602,3.0712,3.0712,0,0,0,0,0,0,3.0284,3.03,3.0405,3.041,3.0349,3.0411,3.0422,3.0446,3.0501,3.0509,3.0475,3.0476,3.0554,3.0562,3.0569,3.0612,3.0599,3.0602,3.0605,3.0711,3.0712,3.0712,0,0,0,0,0,0,3.0281,3.0293,3.0401,3.0356,3.037,3.0414,3.0441,3.0448,3.0466,3.0511,3.0519,3.0486,3.0554,3.0564,3.0604,3.0615,3.0604,3.0608,3.071,3.0711,3.0712,3.0697,0,0,0,0,0,0,3.0277,3.0292,3.0305,3.0356,3.0372,3.0435,3.0441,3.045,3.0473,3.0475,3.0523,3.053,3.0554,3.0599,3.0608,3.062,3.0611,3.0709,3.0711,3.0712,3.0696,3.0697,3.0698,0,0,0,0,0,3.0272,3.0296,3.0306,3.0318,3.039,3.0436,3.0445,3.0474,3.0474,3.0487,3.0516,3.0529,3.0613,3.0602,3.0613,3.0627,3.0709,3.071,3.0712,3.0696,3.0697,3.0698,0,0,0,0,0,0,3.0243,3.0303,3.0314,3.0356,3.0391,3.0441,3.0459,3.0474,3.0508,3.0508,3.0541,3.0552,3.059,3.0612,3.06,3.0662,3.0661,3.0665,3.0646,3.0647,3.0647,3.0641,3.0614,0,0,0,0,0,3.0243,3.0276,3.0326,3.0358,3.0375,3.0414,3.0435,3.0455,3.0491,3.0506,3.0537,3.0571,3.0606,3.0627,3.0661,3.07,3.0711,3.0715,3.0715,3.0715,3.0718,3.0742,3.0744,3.0717,3.0717,3.0717,0,0,3.024,3.0277,3.0296,3.0353,3.0382,3.0416,3.0426,3.046,3.0485,3.051,3.0551,3.0576,3.0616,3.0656,3.0675,3.0676,3.0728,3.0717,3.0717,3.072,3.0743,3.0746,3.0748,3.0718,3.0718,3.0718,0,0,3.0253,3.0284,3.0315,3.0345,3.039,3.0416,3.0423,3.0472,3.049,3.0532,3.0552,3.0581,3.0639,3.0668,3.069,3.0716,3.0728,3.0725,3.0728,3.0751,3.0753,3.0755,3.0765,3.0768,3.0728,3.0728,3.0728,0,3.0244,3.0297,3.0329,3.0363,3.0388,3.0414,3.0446,3.0472,3.0525,3.0542,3.0542,3.0617,3.0646,3.0694,3.07,3.0717,3.0726,3.072,3.075,3.0753,3.0755,3.0765,3.0769,3.0727,3.0727,3.0728,3.0728,0,3.0284,3.032,3.0339,3.0392,3.0419,3.0452,3.0488,3.0512,3.0529,3.0555,3.0597,3.0633,3.0676,3.0688,3.0704,3.0739,3.0738,3.0744,3.0744,3.0756,3.0767,3.077,3.0727,3.0727,3.0727,3.0727,0,0,3.0281,3.0353,3.0359,3.0385,3.0437,3.0465,3.0499,3.0542,3.0562,3.0598,3.0627,3.0676,3.0683,3.0708,3.0728,3.0747,3.0767,3.0751,3.0752,3.0753,3.0808,3.0804,3.0807,3.0776,3.0777,3.0777,3.0805,0,3.0301,3.0365,3.0395,3.0445,3.0479,3.0505,3.0535,3.057,3.0595,3.0627,3.0654,3.069,3.0695,3.071,3.0731,3.076,3.0778,3.0758,3.0803,3.0804,3.0793,3.0813,3.0808,3.0832,3.0809,3.0809,3.081,0,3.0334,3.0372,3.0426,3.0476,3.0491,3.0517,3.0561,3.0591,3.0631,3.0648,3.0677,3.0697,3.0733,3.0731,3.0781,3.0767,3.0787,3.0804,3.0806,3.0811,3.0808,3.0819,3.084,3.0844,3.0816,3.0816,3.0815,0,3.0327,3.0392,3.0433,3.0453,3.0513,3.0531,3.0556,3.0596,3.0621,3.0658,3.0674,3.0714,3.0736,3.0766,3.0796,3.0792,3.0844,3.0844,3.0859,3.0858,3.0869,3.0868,3.0894,3.0881,3.0881,3.0881,3.088,0,3.0347,3.0379,3.0431,3.0457,3.0493,3.0528,3.0563,3.059,3.0626,3.0656,3.068,3.0708,3.0746,3.0778,3.0802,3.0841,3.085,3.0864,3.087,3.0863,3.0861,3.0876,3.0876,3.0882,3.0881,3.0881,3.0881,0,3.0346,3.0383,3.0429,3.0482,3.0497,3.0521,3.0566,3.0592,3.0619,3.0657,3.0668,3.071,3.075,3.0783,3.0834,3.085,3.089,3.0897,3.0877,3.0881,3.0894,3.0893,3.0932,3.0939,3.092,3.092,3.092,0,3.0357,3.0383,3.044,3.0463,3.0488,3.0525,3.0551,3.0586,3.0612,3.0661,3.068,3.0722,3.0758,3.0819,3.0854,3.0894,3.0902,3.0913,3.0908,3.09,3.0903,3.0901,3.0904,3.0913,3.0913,3.0913,3.0913,0,3.0373,3.039,3.0427,3.0472,3.0503,3.0539,3.0575,3.0592,3.0634,3.0662,3.0704,3.0731,3.0785,3.0827,3.087,3.0895,3.0911,3.0915,3.092,3.0913,3.0901,3.0909,3.0879,3.0913,3.0913,3.0913,3.0913,3.0913,3.0379,3.0404,3.0448,3.0489,3.0521,3.0555,3.0582,3.0614,3.065,3.0698,3.0716,3.0759,3.0799,3.086,3.0886,3.0919,3.0921,3.0929,3.0931,3.0933,3.0932,3.0896,3.0927,3.0927,3.0927,3.0927,3.0927,0,3.0397,3.0427,3.0465,3.0516,3.0549,3.0563,3.0604,3.063,3.0669,3.0706,3.0741,3.079,3.083,3.0869,3.0911,3.0931,3.0939,3.0941,3.094,3.0946,3.0928,3.0919,3.0934,3.0934,3.0933,3.0933,3.0933,3.0933,3.041,3.0453,3.0475,3.0535,3.0564,3.0609,3.0631,3.0663,3.0693,3.0747,3.0782,3.0807,3.0845,3.0891,3.0929,3.0939,3.0953,3.0953,3.0965,3.0948,3.0947,3.0946,3.0938,3.0956,3.0956,3.0981,3.0981,3.0981]}]]